FW7170 Weather Reports


time (UTC)temp
F
wind
direction
speed
knots
gust
knots
rain 1hr
in
rain 24hr
in
rain mn
in
humidity
%
barometer
mb
20260505202227 79 135 1.7 1.7 0.00 0.00 0.00 59 1016.3
20260505201724 79 130 0.9 1.7 0.00 0.00 0.00 56 1016.6
20260505201222 78 148 1.7 1.7 0.00 0.00 0.00 57 1016.6
20260505200720 79 108 0.9 0.9 0.00 0.00 0.00 56 1016.5
20260505200216 78 89 2.6 4.3 0.00 0.00 0.00 56 1016.8
20260505195712 78 113 0.9 1.7 0.00 0.00 0.00 58 1016.5
20260505195209 78 116 0.9 1.7 0.00 0.00 0.00 58 1016.8
20260505194707 78 94 1.7 4.3 0.00 0.00 0.00 60 1017.0
20260505194203 78 106 4.3 6.1 0.00 0.00 0.00 57 1017.3
20260505193659 78 143 0.9 0.9 0.00 0.00 0.00 59 1017.2
20260505193157 78 111 1.7 1.7 0.00 0.00 0.00 58 1017.3
20260505192655 79 155 0.9 1.7 0.00 0.00 0.00 56 1017.4
20260505192152 79 126 1.7 1.7 0.00 0.00 0.00 54 1017.7
20260505191650 80 159 1.7 1.7 0.00 0.00 0.00 52 1017.6
20260505191148 79 73 0.9 1.7 0.00 0.00 0.00 54 1017.8
20260505190644 79 158 1.7 2.6 0.00 0.00 0.00 55 1017.8
20260505190144 79 156 1.7 1.7 0.00 0.00 0.00 55 1017.7
20260505185641 78 116 1.7 2.6 0.00 0.00 0.00 59 1017.8
20260505185137 79 160 1.7 1.7 0.00 0.00 0.00 55 1017.5
20260505184634 79 155 2.6 2.6 0.00 0.00 0.00 58 1017.6
20260505184131 79 141 1.7 1.7 0.00 0.00 0.00 61 1017.9
20260505183628 78 150 0.9 1.7 0.00 0.00 0.00 65 1017.7
20260505183126 79 183 1.7 1.7 0.00 0.00 0.00 59 1017.5
20260505182621 79 103 0.9 0.9 0.00 0.00 0.00 60 1017.4
20260505182118 79 88 2.6 2.6 0.00 0.00 0.00 58 1017.5
20260505181615 78 167 1.7 1.7 0.00 0.00 0.00 58 1017.5
20260505181112 78 134 0.9 0.9 0.00 0.00 0.00 58 1017.7
20260505180608 77 106 0.9 1.7 0.00 0.00 0.00 61 1017.7
20260505180106 78 138 1.7 1.7 0.00 0.00 0.00 57 1017.5
20260505175601 78 143 1.7 1.7 0.00 0.00 0.00 61 1017.4
20260505175058 78 145 1.7 1.7 0.00 0.00 0.00 59 1017.8
20260505174555 78 118 0.9 0.9 0.00 0.00 0.00 60 1017.6
20260505174051 77 106 4.3 5.2 0.00 0.00 0.00 60 1017.4
20260505173548 79 164 1.7 1.7 0.00 0.00 0.00 60 1017.3
20260505173044 78 118 0.9 1.7 0.00 0.00 0.00 60 1017.7
20260505172542 79 109 0.9 1.7 0.00 0.00 0.00 57 1017.6
20260505172038 79 102 0.9 0.9 0.00 0.00 0.00 56 1017.8
20260505171533 79 118 0.9 1.7 0.00 0.00 0.00 59 1017.9
20260505171031 78 108 2.6 2.6 0.00 0.00 0.00 61 1017.9
20260505170528 77 125 0.9 1.7 0.00 0.00 0.00 62 1017.9
20260505170024 79 87 0.9 1.7 0.00 0.00 0.00 60 1017.9
20260505165519 78 90 2.6 4.3 0.00 0.00 0.00 59 1018.1
20260505165015 79 101 1.7 1.7 0.00 0.00 0.00 56 1018.0
20260505164511 78 112 1.7 1.7 0.00 0.00 0.00 60 1018.0
20260505164009 78 140 1.7 4.3 0.00 0.00 0.00 62 1018.1
20260505163507 79 137 1.7 2.6 0.00 0.00 0.00 59 1018.5
20260505163003 79 160 1.7 2.6 0.00 0.00 0.00 59 1018.1
20260505162457 77 107 0.0 0.9 0.00 0.00 0.00 59 1018.1
20260505161954 78 163 1.7 4.3 0.00 0.00 0.00 60 1018.2
20260505161450 77 23 1.7 1.7 0.00 0.00 0.00 61 1018.4
20260505160948 77 104 1.7 2.6 0.00 0.00 0.00 58 1018.4
20260505160446 78 73 0.9 0.9 0.00 0.00 0.00 60 1018.6
20260505152922 76 110 0.0 0.9 0.00 0.00 0.00 64 1018.4
20260505152414 78 184 1.7 2.6 0.00 0.00 0.00 61 1018.4
20260505151913 79 126 0.9 0.9 0.00 0.00 0.00 59 1018.4
20260505151410 77 96 0.0 0.9 0.00 0.00 0.00 60 1018.6
20260505150907 77 127 0.9 1.7 0.00 0.00 0.00 65 1018.5
20260505150404 76 148 1.7 2.6 0.00 0.00 0.00 61 1018.4
20260505140322 75 169 2.6 2.6 0.00 0.00 0.00 67 1018.3
20260505130246 72 101 0.0 0.9 0.00 0.00 0.00 75 1018.3
20260505124731 72 105 0.0 0.9 0.00 0.00 0.00 75 1018.1
20260505124228 71 105 0.9 0.9 0.00 0.00 0.00 75 1018.1
20260505123723 72 101 0.0 0.0 0.00 0.00 0.00 78 1018.1
20260505123220 71 101 0.0 0.0 0.00 0.00 0.00 77 1018.0
20260505122717 71 102 0.9 0.9 0.00 0.00 0.00 77 1018.2
20260505122214 71 97 0.0 0.0 0.00 0.00 0.00 80 1017.9
20260505121710 70 97 0.0 0.0 0.00 0.00 0.00 82 1018.2
20260505121207 68 97 0.0 0.0 0.00 0.00 0.00 85 1018.2
20260505120704 66 97 0.0 0.0 0.00 0.00 0.00 89 1018.2
20260505120159 63 97 0.0 0.0 0.00 0.00 0.00 95 1018.2
20260505115659 62 97 0.0 0.0 0.00 0.00 0.00 97 1017.8
20260505115157 62 97 0.0 0.0 0.00 0.00 0.00 99 1018.0
20260505114654 61 97 0.0 0.0 0.00 0.00 0.00 99 1017.8
20260505114150 60 97 0.0 0.0 0.00 0.00 0.00 99 1017.9
20260505113646 59 97 0.0 0.0 0.00 0.00 0.00 99 1017.8
20260505113143 57 97 0.0 0.0 0.00 0.00 0.00 99 1017.8
20260505112640 57 97 0.0 0.0 0.00 0.00 0.00 99 1017.5
20260505112138 56 97 0.0 0.0 0.00 0.00 0.00 99 1017.7
20260505111637 55 97 0.0 0.0 0.00 0.00 0.00 99 1017.5
20260505111133 55 97 0.0 0.0 0.00 0.00 0.00 99 1017.7
20260505110629 55 97 0.0 0.0 0.00 0.00 0.00 99 1017.5
20260505110127 55 97 0.0 0.0 0.00 0.00 0.00 99 1017.4
20260505102102 54 97 0.0 0.0 0.00 0.00 0.00 99 1017.1
20260505101601 54 97 0.0 0.0 0.00 0.00 0.00 99 1016.8
20260505101057 54 97 0.0 0.0 0.00 0.00 0.00 99 1017.0
20260505100553 54 97 0.0 0.0 0.00 0.00 0.00 99 1016.9
20260505100050 54 95 0.0 0.0 0.00 0.00 0.00 99 1016.7
20260505095547 54 95 0.0 0.0 0.00 0.00 0.00 99 1016.9
20260505095043 55 94 0.0 0.0 0.00 0.00 0.00 99 1017.0
20260505094540 55 94 0.0 0.0 0.00 0.00 0.00 99 1016.9
20260505094036 54 94 0.0 0.0 0.00 0.00 0.00 99 1016.8
20260505093532 54 94 0.0 0.0 0.00 0.00 0.00 99 1017.0
20260505093030 55 94 0.0 0.0 0.00 0.00 0.00 99 1016.8
20260505092527 55 94 0.0 0.0 0.00 0.00 0.00 99 1016.7
20260505092026 55 94 0.0 0.0 0.00 0.00 0.00 99 1016.8
20260505091522 55 94 0.0 0.0 0.00 0.00 0.00 99 1016.8
20260505091020 55 94 0.0 0.0 0.00 0.00 0.00 99 1016.7
20260505090518 55 94 0.0 0.0 0.00 0.00 0.00 99 1016.6
20260505090016 55 94 0.0 0.0 0.00 0.00 0.00 99 1016.6
20260505085513 55 94 0.0 0.0 0.00 0.00 0.00 99 1016.7
20260505085011 55 94 0.0 0.0 0.00 0.00 0.00 99 1016.5
20260505084509 56 94 0.0 0.0 0.00 0.00 0.00 99 1016.6
20260505084007 55 94 0.0 0.0 0.00 0.00 0.00 99 1016.6
20260505083504 55 94 0.0 0.0 0.00 0.00 0.00 99 1016.6
20260505083001 55 94 0.0 0.0 0.00 0.00 0.00 99 1016.4
20260505082456 55 94 0.0 0.0 0.00 0.00 0.00 99 1016.4
20260505081953 55 94 0.0 0.0 0.00 0.00 0.00 99 1016.2
20260505081450 55 94 0.0 0.0 0.00 0.00 0.00 99 1016.3
20260505080946 55 93 0.0 0.0 0.00 0.00 0.00 99 1016.3
20260505080437 55 93 0.0 0.0 0.00 0.00 0.00 99 1016.2
20260505075932 55 93 0.0 0.0 0.00 0.00 0.00 99 1016.2
20260505075429 56 93 0.0 0.0 0.00 0.00 0.00 99 1016.5
20260505074927 56 93 0.0 0.0 0.00 0.00 0.00 99 1015.9
20260505074424 55 93 0.0 0.0 0.00 0.00 0.00 99 1016.2
20260505073921 56 93 0.0 0.0 0.00 0.00 0.00 99 1016.2
20260505073419 56 93 0.0 0.0 0.00 0.00 0.00 99 1016.2
20260505072916 56 93 0.0 0.0 0.00 0.00 0.00 99 1016.3
20260505072412 56 93 0.0 0.0 0.00 0.00 0.00 99 1016.1
20260505071908 56 93 0.0 0.0 0.00 0.00 0.00 99 1016.2
20260505071404 55 93 0.0 0.0 0.00 0.00 0.00 98 1016.3
20260505070903 56 93 0.0 0.0 0.00 0.00 0.00 98 1016.2
20260505070359 56 93 0.0 0.0 0.00 0.00 0.00 98 1016.2
20260505065854 56 93 0.0 0.0 0.00 0.00 0.00 98 1016.2
20260505065351 56 93 0.0 0.0 0.00 0.00 0.00 98 1016.2
20260505064848 56 93 0.0 0.0 0.00 0.00 0.00 98 1016.5
20260505064345 56 93 0.0 0.0 0.00 0.00 0.00 98 1016.4
20260505063844 56 93 0.0 0.0 0.00 0.00 0.00 98 1016.5
20260505063339 56 93 0.0 0.0 0.00 0.00 0.00 98 1016.7
20260505062836 56 93 0.0 0.0 0.00 0.00 0.00 97 1016.5
20260505062333 56 93 0.0 0.0 0.00 0.00 0.00 97 1016.7
20260505061830 56 93 0.0 0.0 0.00 0.00 0.00 97 1016.5
20260505061328 56 93 0.0 0.0 0.00 0.00 0.00 97 1016.5
20260505060826 56 93 0.0 0.0 0.00 0.00 0.00 97 1016.8
20260505060322 56 93 0.0 0.0 0.00 0.00 0.00 97 1016.9
20260505055817 56 93 0.0 0.0 0.00 0.00 0.00 97 1017.0
20260505055314 57 93 0.0 0.0 0.00 0.00 0.00 97 1017.0
20260505054812 57 93 0.0 0.0 0.00 0.00 0.00 96 1017.1
20260505054309 57 93 0.0 0.0 0.00 0.00 0.00 96 1017.0
20260505053807 57 93 0.0 0.0 0.00 0.00 0.00 96 1016.9
20260505053304 57 93 0.0 0.0 0.00 0.00 0.00 95 1017.3
20260505052800 57 93 0.0 0.0 0.00 0.00 0.00 95 1017.3
20260505052257 57 93 0.0 0.0 0.00 0.00 0.00 95 1017.5
20260505051754 57 93 0.0 0.0 0.00 0.00 0.00 94 1017.2
20260505051252 57 93 0.0 0.0 0.00 0.00 0.00 94 1017.3
20260505050750 57 93 0.0 0.0 0.00 0.00 0.00 94 1017.4
20260505050248 57 93 0.0 0.0 0.00 0.00 0.00 94 1017.5
20260505041718 58 93 0.0 0.0 0.00 0.00 0.00 89 1017.5
20260505041215 58 93 0.0 0.0 0.00 0.00 0.00 90 1017.5
20260505040713 58 93 0.0 0.0 0.00 0.00 0.00 89 1017.4
20260505040210 59 93 0.0 0.0 0.00 0.00 0.00 88 1017.5
20260505035706 59 93 0.0 0.0 0.00 0.00 0.00 87 1017.5
20260505035202 59 93 0.0 0.0 0.00 0.00 0.00 86 1017.6
20260505034659 59 93 0.0 0.0 0.00 0.00 0.00 85 1017.3
20260505034156 60 93 0.0 0.0 0.00 0.00 0.00 85 1017.5
20260505033652 59 94 0.0 0.0 0.00 0.00 0.00 85 1017.3
20260505033151 60 94 0.0 0.0 0.00 0.00 0.00 84 1017.5
20260505032648 60 94 0.0 0.0 0.00 0.00 0.00 83 1017.4
20260505032144 60 94 0.0 0.0 0.00 0.00 0.00 83 1017.5
20260505031642 60 94 0.0 0.0 0.00 0.00 0.00 83 1017.5
20260505031137 60 94 0.0 0.0 0.00 0.00 0.00 82 1017.6
20260505030635 60 94 0.0 0.0 0.00 0.00 0.00 82 1017.4
20260505030130 61 94 0.0 0.0 0.00 0.00 0.00 81 1017.5
20260505025626 61 94 0.0 0.0 0.00 0.00 0.00 80 1017.4
20260505025125 61 94 0.0 0.0 0.00 0.00 0.00 80 1017.6
20260505024622 62 95 0.0 0.0 0.00 0.00 0.00 79 1017.6
20260505024120 62 95 0.0 0.0 0.00 0.00 0.00 78 1017.4
20260505023617 62 95 0.0 0.9 0.00 0.00 0.00 77 1017.4
20260505023115 62 95 0.0 0.9 0.00 0.00 0.00 77 1017.5
20260505022612 62 95 0.0 0.0 0.00 0.00 0.00 76 1017.4
20260505022108 62 95 0.0 0.0 0.00 0.00 0.00 76 1017.6
20260505021605 62 95 0.0 0.0 0.00 0.00 0.00 75 1017.4
20260505021102 62 96 0.0 0.0 0.00 0.00 0.00 76 1017.6
20260505020602 62 95 0.0 0.0 0.00 0.00 0.00 75 1017.6
20260505020059 62 96 0.0 0.0 0.00 0.00 0.00 76 1017.6
20260505015556 63 96 0.0 0.0 0.00 0.00 0.00 75 1017.4
20260505015053 62 96 0.0 0.0 0.00 0.00 0.00 75 1017.2
20260505014549 62 96 0.0 0.0 0.00 0.00 0.00 77 1017.3
20260505014047 62 96 0.0 0.0 0.00 0.00 0.00 79 1017.0
20260505013544 62 96 0.0 0.0 0.00 0.00 0.00 78 1017.1
20260505013041 62 96 0.0 0.0 0.00 0.00 0.00 77 1017.3
20260505012539 62 96 0.0 0.0 0.00 0.00 0.00 73 1017.2
20260505012036 63 96 0.0 0.0 0.00 0.00 0.00 73 1017.2
20260505011531 63 96 0.0 0.0 0.00 0.00 0.00 73 1017.2
20260505011029 64 96 0.0 0.0 0.00 0.00 0.00 72 1016.9
20260505010524 64 96 0.0 0.0 0.00 0.00 0.00 69 1017.0
20260505010021 65 100 0.0 0.0 0.00 0.00 0.00 68 1016.9
20260505005517 65 100 0.0 0.0 0.00 0.00 0.00 67 1017.1
20260505005015 66 101 0.9 0.9 0.00 0.00 0.00 66 1016.9
20260505004511 66 101 0.0 0.0 0.00 0.00 0.00 66 1017.0
20260505004008 66 101 0.0 0.0 0.00 0.00 0.00 65 1016.9
20260505003505 66 101 0.0 0.0 0.00 0.00 0.00 65 1016.8
20260505003003 66 106 0.0 0.0 0.00 0.00 0.00 64 1016.9
20260505002458 67 106 0.0 0.0 0.00 0.00 0.00 63 1016.7
20260505001956 67 107 0.0 0.9 0.00 0.00 0.00 62 1016.7
20260505001453 68 106 0.9 0.9 0.00 0.00 0.00 61 1016.6
20260505000950 68 106 0.0 0.0 0.00 0.00 0.00 60 1016.8
20260505000448 68 108 0.9 0.9 0.00 0.00 0.00 60 1017.0
20260504235945 68 112 0.9 0.9 0.00 0.00 0.00 58 1017.1
20260504235442 69 116 0.9 0.9 0.00 0.00 0.00 59 1016.8
20260504234938 69 98 0.0 0.9 0.00 0.00 0.00 60 1016.9
20260504234436 69 105 0.0 0.9 0.00 0.00 0.00 57 1016.8
20260504233932 70 111 0.9 0.9 0.00 0.00 0.00 57 1017.0
20260504233428 70 114 0.0 0.0 0.00 0.00 0.00 55 1016.8
20260504232925 70 123 1.7 1.7 0.00 0.00 0.00 54 1016.7
20260504232422 71 122 0.9 1.7 0.00 0.00 0.00 52 1016.5
20260504231919 72 113 0.9 0.9 0.00 0.00 0.00 51 1016.5
20260504231415 73 108 0.0 0.9 0.00 0.00 0.00 54 1016.5
20260504230912 73 113 0.9 0.9 0.00 0.00 0.00 53 1016.6
20260504230409 73 148 1.7 1.7 0.00 0.00 0.00 54 1016.4
20260504225908 74 118 0.9 0.9 0.00 0.00 0.00 53 1016.9
20260504225404 73 147 0.9 1.7 0.00 0.00 0.00 51 1016.6
20260504224902 73 117 0.9 1.7 0.00 0.00 0.00 52 1016.6
20260504224358 74 127 0.9 0.9 0.00 0.00 0.00 52 1016.6
20260504223855 74 162 0.9 1.7 0.00 0.00 0.00 54 1016.6
20260504223350 74 108 1.7 1.7 0.00 0.00 0.00 50 1016.6
20260504222847 75 132 0.9 0.9 0.00 0.00 0.00 53 1016.7
20260504222344 75 115 0.9 0.9 0.00 0.00 0.00 51 1016.6
20260504221843 74 138 1.7 1.7 0.00 0.00 0.00 54 1016.4
20260504221339 75 148 0.9 1.7 0.00 0.00 0.00 52 1016.6
20260504220836 75 158 1.7 1.7 0.00 0.00 0.00 54 1016.6
20260504220332 76 150 1.7 1.7 0.00 0.00 0.00 54 1016.5
20260504215830 74 159 1.7 1.7 0.00 0.00 0.00 54 1016.7
20260504215326 74 127 0.9 1.7 0.00 0.00 0.00 54 1016.7
20260504214822 75 139 1.7 1.7 0.00 0.00 0.00 54 1016.7
20260504214320 75 131 1.7 1.7 0.00 0.00 0.00 55 1016.1
20260504213816 75 159 0.9 1.7 0.00 0.00 0.00 56 1016.7
20260504213312 75 62 2.6 2.6 0.00 0.00 0.00 54 1016.7
20260504212809 76 145 1.7 1.7 0.00 0.00 0.00 52 1016.4
20260504212306 75 124 0.9 0.9 0.00 0.00 0.00 53 1016.4
20260504211803 76 69 1.7 2.6 0.00 0.00 0.00 52 1016.8
20260504211259 77 110 0.0 0.9 0.00 0.00 0.00 49 1016.7
20260504210757 77 109 1.7 1.7 0.00 0.00 0.00 51 1016.6
20260504210254 77 164 0.9 1.7 0.00 0.00 0.00 55 1016.5
20260504205751 77 140 1.7 1.7 0.00 0.00 0.00 50 1016.5
20260504205249 77 146 0.9 1.7 0.00 0.00 0.00 52 1016.7
20260504204747 77 80 4.3 7.0 0.00 0.00 0.00 49 1016.6
20260504204244 77 79 0.9 1.7 0.00 0.00 0.00 51 1016.5
20260504203744 77 170 2.6 2.6 0.00 0.00 0.00 50 1016.6
20260504203241 77 108 0.9 0.9 0.00 0.00 0.00 53 1016.4
20260504202741 78 159 1.7 1.7 0.00 0.00 0.00 49 1016.6